Time,TemperatureF,DewpointF,PressureIn,WindDirection,WindDirectionDegrees,WindSpeedMPH,WindSpeedGustMPH,Humidity,HourlyPrecipIn,Conditions,Clouds,dailyrainin,SoftwareType,DateUTC
2013-02-23 00:00:00,36.7,36.2,30.12,West,270,0.0,0.0,98,0.00,CLR,,0.31,WeatherDisplay:10.37,2013-02-23 05:00:00,
2013-02-23 00:04:00,36.7,36.2,30.12,West,270,0.0,0.0,98,0.00,RA,,0.00,WeatherDisplay:10.37,2013-02-23 05:04:00,
2013-02-23 00:09:00,36.7,36.2,30.12,West,270,0.0,0.0,98,0.00,RA,,0.00,WeatherDisplay:10.37,2013-02-23 05:09:00,
2013-02-23 00:14:00,36.7,36.2,30.09,NNW,338,0.0,0.0,98,0.00,CLR,,0.00,WeatherDisplay:10.37,2013-02-23 05:14:00,
2013-02-23 00:19:00,36.7,36.2,30.09,NW,315,0.0,0.0,98,0.00,CLR,,0.00,WeatherDisplay:10.37,2013-02-23 05:19:00,
2013-02-23 00:24:00,36.7,36.2,30.09,NW,315,0.0,0.0,98,0.00,CLR,,0.00,WeatherDisplay:10.37,2013-02-23 05:24:00,
2013-02-23 00:29:00,36.7,36.2,30.12,NW,315,0.0,0.0,98,0.00,CLR,,0.00,WeatherDisplay:10.37,2013-02-23 05:29:00,
2013-02-23 00:34:00,36.7,36.2,30.12,NW,315,0.0,0.0,98,0.00,CLR,,0.00,WeatherDisplay:10.37,2013-02-23 05:34:00,
2013-02-23 00:39:00,36.7,36.2,30.12,NW,315,0.0,0.0,98,0.00,CLR,,0.00,WeatherDisplay:10.37,2013-02-23 05:39:00,
2013-02-23 00:44:00,36.7,36.2,30.09,NW,315,0.0,0.0,98,0.00,CLR,,0.00,WeatherDisplay:10.37,2013-02-23 05:44:00,
2013-02-23 00:49:00,36.7,36.2,30.09,NW,315,0.0,0.0,98,0.00,CLR,,0.00,WeatherDisplay:10.37,2013-02-23 05:49:00,
2013-02-23 00:54:00,36.7,36.2,30.09,NW,315,0.0,0.0,98,0.00,CLR,,0.00,WeatherDisplay:10.37,2013-02-23 05:54:00,
2013-02-23 00:59:00,36.7,36.2,30.09,NW,315,0.0,0.0,98,0.00,CLR,,0.00,WeatherDisplay:10.37,2013-02-23 05:59:00,
2013-02-23 01:04:00,36.7,36.2,30.09,NNW,338,0.0,0.0,98,0.00,CLR,,0.00,WeatherDisplay:10.37,2013-02-23 06:04:00,
2013-02-23 01:09:00,36.7,36.2,30.09,NW,315,0.0,0.0,98,0.00,CLR,,0.00,WeatherDisplay:10.37,2013-02-23 06:09:00,
2013-02-23 01:14:00,36.7,36.2,30.09,NW,315,0.0,0.0,98,0.00,CLR,,0.00,WeatherDisplay:10.37,2013-02-23 06:14:00,
2013-02-23 01:19:00,36.7,36.2,30.09,NW,315,0.0,0.0,98,0.00,CLR,,0.00,WeatherDisplay:10.37,2013-02-23 06:19:00,
2013-02-23 01:24:00,36.7,36.2,30.09,NW,315,0.0,0.0,98,0.00,CLR,,0.00,WeatherDisplay:10.37,2013-02-23 06:24:00,
2013-02-23 01:29:00,36.7,36.2,30.06,NW,315,0.0,0.0,98,0.00,CLR,,0.00,WeatherDisplay:10.37,2013-02-23 06:29:00,
2013-02-23 01:34:00,36.9,36.3,30.06,NW,315,0.0,0.0,98,0.00,CLR,,0.00,WeatherDisplay:10.37,2013-02-23 06:34:00,
2013-02-23 01:39:00,36.9,36.3,30.06,NW,315,0.0,0.0,98,0.00,CLR,,0.00,WeatherDisplay:10.37,2013-02-23 06:39:00,
2013-02-23 01:44:00,36.9,36.3,30.06,NW,315,0.0,0.0,98,0.00,CLR,,0.00,WeatherDisplay:10.37,2013-02-23 06:44:00,
2013-02-23 01:49:00,36.9,36.3,30.06,NW,315,0.0,0.0,98,0.00,CLR,,0.00,WeatherDisplay:10.37,2013-02-23 06:49:00,
2013-02-23 01:54:00,36.9,36.3,30.06,NW,315,0.0,0.0,98,0.00,CLR,,0.00,WeatherDisplay:10.37,2013-02-23 06:54:00,
2013-02-23 01:59:00,36.9,36.3,30.06,NW,315,0.0,0.0,98,0.00,CLR,,0.00,WeatherDisplay:10.37,2013-02-23 06:59:00,
2013-02-23 02:04:00,36.9,36.3,30.06,NW,315,0.0,0.0,98,0.00,CLR,,0.00,WeatherDisplay:10.37,2013-02-23 07:04:00,
2013-02-23 02:09:00,36.9,36.3,30.06,NW,315,0.0,0.0,98,0.00,CLR,,0.00,WeatherDisplay:10.37,2013-02-23 07:09:00,
2013-02-23 02:14:00,36.9,36.3,30.09,NW,315,0.0,0.0,98,0.00,CLR,,0.00,WeatherDisplay:10.37,2013-02-23 07:14:00,
2013-02-23 02:19:00,37.0,36.5,30.09,NW,315,0.0,0.0,98,0.00,CLR,,0.00,WeatherDisplay:10.37,2013-02-23 07:19:00,
2013-02-23 02:24:00,37.0,36.5,30.09,NW,315,0.0,0.0,98,0.00,CLR,,0.00,WeatherDisplay:10.37,2013-02-23 07:24:00,
2013-02-23 02:29:00,36.9,36.3,30.06,NW,315,0.0,0.0,98,0.00,CLR,,0.00,WeatherDisplay:10.37,2013-02-23 07:29:00,
2013-02-23 02:34:00,36.9,36.3,30.06,NW,315,0.0,0.0,98,0.00,CLR,,0.00,WeatherDisplay:10.37,2013-02-23 07:34:00,
2013-02-23 02:39:00,37.0,36.5,30.06,SW,225,0.0,0.0,98,0.00,CLR,,0.00,WeatherDisplay:10.37,2013-02-23 07:39:00,
2013-02-23 02:44:00,37.0,36.5,30.06,SW,225,0.0,0.0,98,0.00,CLR,,0.00,WeatherDisplay:10.37,2013-02-23 07:44:00,
2013-02-23 02:49:00,37.0,36.5,30.06,NNW,338,0.0,0.0,98,0.00,CLR,,0.00,WeatherDisplay:10.37,2013-02-23 07:49:00,
2013-02-23 02:54:00,37.0,36.5,30.06,NW,315,0.0,0.0,98,0.00,CLR,,0.00,WeatherDisplay:10.37,2013-02-23 07:54:00,
2013-02-23 02:59:00,37.0,36.5,30.03,West,270,0.0,0.0,98,0.00,CLR,,0.00,WeatherDisplay:10.37,2013-02-23 07:59:00,
2013-02-23 03:04:00,37.0,36.5,30.03,NW,315,0.0,0.0,98,0.00,CLR,,0.00,WeatherDisplay:10.37,2013-02-23 08:04:00,
2013-02-23 03:09:00,37.2,36.7,30.03,NW,315,0.0,0.0,98,0.00,CLR,,0.00,WeatherDisplay:10.37,2013-02-23 08:09:00,
2013-02-23 03:14:00,37.0,36.5,30.03,NW,315,0.0,0.0,98,0.04,RA,,0.04,WeatherDisplay:10.37,2013-02-23 08:14:00,
2013-02-23 03:19:00,37.0,36.5,30.03,NW,315,0.0,0.0,98,0.04,RA,,0.04,WeatherDisplay:10.37,2013-02-23 08:19:00,
2013-02-23 03:24:00,37.2,36.7,30.03,NW,315,0.0,0.0,98,0.04,CLR,,0.04,WeatherDisplay:10.37,2013-02-23 08:24:00,
2013-02-23 03:29:00,37.2,36.7,30.00,NW,315,0.0,0.0,98,0.04,CLR,,0.04,WeatherDisplay:10.37,2013-02-23 08:29:00,
2013-02-23 03:34:00,37.2,36.7,30.00,NW,315,0.0,0.0,98,0.04,CLR,,0.04,WeatherDisplay:10.37,2013-02-23 08:34:00,
2013-02-23 03:39:00,37.2,36.7,30.00,NW,315,0.0,0.0,98,0.04,CLR,,0.04,WeatherDisplay:10.37,2013-02-23 08:39:00,
2013-02-23 03:44:00,37.2,36.7,30.00,NW,315,0.0,0.0,98,0.04,CLR,,0.04,WeatherDisplay:10.37,2013-02-23 08:44:00,
2013-02-23 03:49:00,37.2,36.7,30.00,South,180,0.0,0.0,98,0.04,CLR,,0.04,WeatherDisplay:10.37,2013-02-23 08:49:00,
2013-02-23 03:54:00,37.2,36.7,30.00,South,180,0.0,0.0,98,0.04,CLR,,0.04,WeatherDisplay:10.37,2013-02-23 08:54:00,
2013-02-23 03:59:00,37.2,36.7,30.00,South,180,0.0,0.0,98,0.04,CLR,,0.04,WeatherDisplay:10.37,2013-02-23 08:59:00,
2013-02-23 04:04:00,37.2,36.7,30.00,SSW,202,0.0,0.0,98,0.04,CLR,,0.04,WeatherDisplay:10.37,2013-02-23 09:04:00,
2013-02-23 04:09:00,37.2,36.7,30.00,NNW,338,0.0,0.0,98,0.04,CLR,,0.04,WeatherDisplay:10.37,2013-02-23 09:09:00,
2013-02-23 04:14:00,37.2,36.7,30.00,WNW,292,0.0,0.0,98,0.00,CLR,,0.04,WeatherDisplay:10.37,2013-02-23 09:14:00,
2013-02-23 04:19:00,37.4,36.9,30.00,WNW,292,0.0,0.0,98,0.00,CLR,,0.04,WeatherDisplay:10.37,2013-02-23 09:19:00,
2013-02-23 04:24:00,37.4,36.9,30.00,WNW,292,0.0,0.0,98,0.00,CLR,,0.04,WeatherDisplay:10.37,2013-02-23 09:24:00,
2013-02-23 04:29:00,37.4,36.9,30.00,WNW,292,0.0,0.0,98,0.00,CLR,,0.04,WeatherDisplay:10.37,2013-02-23 09:29:00,
2013-02-23 04:34:00,37.4,36.9,30.00,WNW,292,0.0,0.0,98,0.00,CLR,,0.04,WeatherDisplay:10.37,2013-02-23 09:34:00,
2013-02-23 04:39:00,37.4,36.9,30.00,NW,315,0.0,0.0,98,0.00,CLR,,0.04,WeatherDisplay:10.37,2013-02-23 09:39:00,
2013-02-23 04:44:00,37.4,36.9,30.00,NW,315,0.0,0.0,98,0.00,CLR,,0.04,WeatherDisplay:10.37,2013-02-23 09:44:00,
2013-02-23 04:49:00,37.4,36.9,30.00,NNW,338,0.0,0.0,98,0.00,CLR,,0.04,WeatherDisplay:10.37,2013-02-23 09:49:00,
2013-02-23 04:54:00,37.4,36.9,30.00,NW,315,0.0,0.0,98,0.00,CLR,,0.04,WeatherDisplay:10.37,2013-02-23 09:54:00,
2013-02-23 04:59:00,37.4,36.9,30.00,NW,315,0.0,0.0,98,0.00,CLR,,0.04,WeatherDisplay:10.37,2013-02-23 09:59:00,
2013-02-23 05:04:00,37.4,36.9,30.00,NW,315,0.0,0.0,98,0.00,CLR,,0.04,WeatherDisplay:10.37,2013-02-23 10:04:00,
2013-02-23 05:09:00,37.4,36.9,30.00,West,270,0.0,0.0,98,0.00,CLR,,0.04,WeatherDisplay:10.37,2013-02-23 10:09:00,
2013-02-23 05:14:00,37.4,36.9,30.00,WNW,292,0.0,0.0,98,0.00,CLR,,0.04,WeatherDisplay:10.37,2013-02-23 10:14:00,
2013-02-23 05:19:00,37.6,37.1,30.00,West,270,0.0,0.0,98,0.00,CLR,,0.04,WeatherDisplay:10.37,2013-02-23 10:19:00,
2013-02-23 05:24:00,37.6,37.1,30.00,West,270,0.0,0.0,98,0.04,RA,,0.08,WeatherDisplay:10.37,2013-02-23 10:24:00,
2013-02-23 05:29:00,37.6,37.1,30.00,West,270,0.0,0.0,98,0.04,RA,,0.08,WeatherDisplay:10.37,2013-02-23 10:29:00,
2013-02-23 05:34:00,37.4,36.9,30.00,West,270,0.0,0.0,98,0.04,,,0.08,WeatherDisplay:10.37,2013-02-23 10:34:00,
2013-02-23 05:39:00,37.6,37.1,30.00,West,270,0.0,0.0,98,0.04,CLR,,0.08,WeatherDisplay:10.37,2013-02-23 10:39:00,
2013-02-23 05:44:00,37.6,37.1,30.00,West,270,0.0,0.0,98,0.04,CLR,,0.08,WeatherDisplay:10.37,2013-02-23 10:44:00,
2013-02-23 05:49:00,37.6,37.1,30.00,North,0,0.0,0.0,98,0.08,RA,,0.12,WeatherDisplay:10.37,2013-02-23 10:49:00,
2013-02-23 05:54:00,37.6,37.1,30.00,WNW,292,0.0,0.0,98,0.08,RA,,0.12,WeatherDisplay:10.37,2013-02-23 10:54:00,
2013-02-23 05:59:00,37.6,37.1,30.00,NNW,338,0.0,0.0,98,0.08,,,0.12,WeatherDisplay:10.37,2013-02-23 10:59:00,
2013-02-23 06:04:00,37.6,37.1,30.00,South,180,0.0,0.0,98,0.08,CLR,,0.12,WeatherDisplay:10.37,2013-02-23 11:04:00,
2013-02-23 06:09:00,37.6,37.1,30.00,South,180,0.0,0.0,98,0.08,CLR,,0.12,WeatherDisplay:10.37,2013-02-23 11:09:00,
2013-02-23 06:14:00,37.6,37.1,30.03,South,180,0.0,0.0,98,0.08,CLR,,0.12,WeatherDisplay:10.37,2013-02-23 11:14:00,
2013-02-23 06:19:00,37.6,37.1,30.03,South,180,0.0,0.0,98,0.12,RA,,0.16,WeatherDisplay:10.37,2013-02-23 11:19:00,
2013-02-23 06:24:00,37.6,37.1,30.03,South,180,0.0,0.0,98,0.08,RA,,0.16,WeatherDisplay:10.37,2013-02-23 11:24:00,
2013-02-23 06:29:00,37.6,37.1,30.00,West,270,0.0,0.0,98,0.08,,,0.16,WeatherDisplay:10.37,2013-02-23 11:29:00,
2013-02-23 06:34:00,37.6,37.1,30.00,West,270,0.0,0.0,98,0.08,CLR,,0.16,WeatherDisplay:10.37,2013-02-23 11:34:00,
2013-02-23 06:39:00,37.6,37.1,30.00,SSW,202,0.0,0.0,98,0.08,CLR,,0.16,WeatherDisplay:10.37,2013-02-23 11:39:00,
2013-02-23 06:44:00,37.6,37.1,30.00,WSW,248,0.0,0.0,98,0.12,RA,,0.20,WeatherDisplay:10.37,2013-02-23 11:44:00,
2013-02-23 06:49:00,37.6,37.1,30.00,WSW,248,0.0,0.0,98,0.08,RA,,0.20,WeatherDisplay:10.37,2013-02-23 11:49:00,
2013-02-23 06:54:00,37.6,37.1,30.00,WSW,248,0.0,0.0,98,0.08,,,0.20,WeatherDisplay:10.37,2013-02-23 11:54:00,
2013-02-23 06:59:00,37.8,37.2,30.00,WSW,248,0.0,0.0,98,0.08,CLR,,0.20,WeatherDisplay:10.37,2013-02-23 11:59:00,
2013-02-23 07:04:00,37.6,37.1,30.00,WSW,248,0.0,0.0,98,0.13,RA,,0.25,WeatherDisplay:10.37,2013-02-23 12:04:00,
2013-02-23 07:09:00,37.6,37.1,30.00,WSW,248,0.0,0.0,98,0.13,RA,,0.25,WeatherDisplay:10.37,2013-02-23 12:09:00,
2013-02-23 07:14:00,37.8,37.2,30.00,SW,225,0.0,0.0,98,0.13,,,0.25,WeatherDisplay:10.37,2013-02-23 12:14:00,
2013-02-23 07:19:00,37.6,37.1,30.00,SW,225,0.0,0.0,98,0.09,CLR,,0.25,WeatherDisplay:10.37,2013-02-23 12:19:00,
2013-02-23 07:24:00,37.6,37.1,30.00,SW,225,0.0,0.0,98,0.09,CLR,,0.25,WeatherDisplay:10.37,2013-02-23 12:24:00,
2013-02-23 07:29:00,37.8,37.2,29.97,SW,225,0.0,0.0,98,0.09,CLR,,0.25,WeatherDisplay:10.37,2013-02-23 12:29:00,
2013-02-23 07:34:00,37.8,37.2,29.97,SW,225,0.0,0.0,98,0.09,CLR,,0.25,WeatherDisplay:10.37,2013-02-23 12:34:00,
2013-02-23 07:39:00,37.8,37.2,29.97,SSW,202,0.0,0.0,98,0.09,CLR,,0.25,WeatherDisplay:10.37,2013-02-23 12:39:00,
2013-02-23 07:44:00,37.8,37.2,29.97,SSW,202,0.0,0.0,98,0.05,CLR,,0.25,WeatherDisplay:10.37,2013-02-23 12:44:00,
2013-02-23 07:49:00,37.8,37.2,29.97,SSW,202,0.0,0.0,98,0.05,CLR,,0.25,WeatherDisplay:10.37,2013-02-23 12:49:00,
2013-02-23 07:54:00,37.8,37.2,29.97,SSW,202,0.0,0.0,98,0.05,CLR,,0.25,WeatherDisplay:10.37,2013-02-23 12:54:00,
2013-02-23 07:59:00,37.8,37.2,29.97,SSW,202,0.0,0.0,98,0.05,CLR,,0.25,WeatherDisplay:10.37,2013-02-23 12:59:00,
2013-02-23 08:04:00,37.8,37.2,29.97,WNW,292,0.0,0.0,98,0.00,CLR,,0.25,WeatherDisplay:10.37,2013-02-23 13:04:00,
2013-02-23 08:09:00,37.8,37.2,29.97,SSW,202,0.0,0.0,98,0.00,CLR,,0.25,WeatherDisplay:10.37,2013-02-23 13:09:00,
2013-02-23 08:14:00,37.9,37.4,29.94,SE,135,0.0,0.0,98,0.00,CLR,,0.25,WeatherDisplay:10.37,2013-02-23 13:14:00,
2013-02-23 08:19:00,38.1,37.6,29.94,West,270,0.0,0.0,98,0.00,CLR,,0.25,WeatherDisplay:10.37,2013-02-23 13:19:00,
2013-02-23 08:24:00,37.9,37.4,29.94,WNW,292,0.0,0.0,98,0.04,RA,,0.29,WeatherDisplay:10.37,2013-02-23 13:24:00,
2013-02-23 08:29:00,37.9,37.4,29.97,WNW,292,0.0,0.0,98,0.04,RA,,0.29,WeatherDisplay:10.37,2013-02-23 13:29:00,
2013-02-23 08:34:00,37.9,37.4,29.97,West,270,0.0,0.0,98,0.04,CLR,,0.29,WeatherDisplay:10.37,2013-02-23 13:34:00,
2013-02-23 08:39:00,37.9,37.4,29.97,West,270,0.0,0.0,98,0.08,RA,,0.33,WeatherDisplay:10.37,2013-02-23 13:39:00,
2013-02-23 08:44:00,37.9,37.4,29.97,West,270,0.0,0.0,98,0.08,RA,,0.33,WeatherDisplay:10.37,2013-02-23 13:44:00,
2013-02-23 08:49:00,38.1,37.6,29.97,WNW,292,0.0,0.0,98,0.12,RA,,0.37,WeatherDisplay:10.37,2013-02-23 13:49:00,
2013-02-23 08:54:00,38.1,37.6,29.97,WNW,292,0.0,0.0,98,0.12,RA,,0.37,WeatherDisplay:10.37,2013-02-23 13:54:00,
2013-02-23 08:59:00,37.9,37.4,29.97,WNW,292,0.0,0.0,98,0.12,,,0.37,WeatherDisplay:10.37,2013-02-23 13:59:00,
2013-02-23 09:04:00,38.1,37.6,29.97,WNW,292,0.0,0.0,98,0.12,CLR,,0.37,WeatherDisplay:10.37,2013-02-23 14:04:00,
2013-02-23 09:09:00,38.1,37.6,29.97,WSW,248,0.0,0.0,98,0.17,RA,,0.42,WeatherDisplay:10.37,2013-02-23 14:09:00,
2013-02-23 09:14:00,38.1,37.6,29.97,WSW,248,0.0,0.0,98,0.17,RA,,0.42,WeatherDisplay:10.37,2013-02-23 14:14:00,
2013-02-23 09:19:00,38.3,37.8,29.97,WSW,248,0.0,0.0,98,0.17,,,0.42,WeatherDisplay:10.37,2013-02-23 14:19:00,
2013-02-23 09:24:00,38.1,37.6,29.97,SW,225,0.0,0.0,98,0.13,CLR,,0.42,WeatherDisplay:10.37,2013-02-23 14:24:00,
2013-02-23 09:29:00,38.3,37.8,29.94,SW,225,0.0,0.0,98,0.13,CLR,,0.42,WeatherDisplay:10.37,2013-02-23 14:29:00,
2013-02-23 09:34:00,38.5,38.0,29.94,WSW,248,0.0,0.0,98,0.17,RA,,0.46,WeatherDisplay:10.37,2013-02-23 14:34:00,
2013-02-23 09:39:00,38.5,38.0,29.94,SSW,202,0.0,0.0,98,0.13,RA,,0.46,WeatherDisplay:10.37,2013-02-23 14:39:00,
2013-02-23 09:44:00,38.7,38.1,29.97,SSW,202,0.0,0.0,98,0.13,,,0.46,WeatherDisplay:10.37,2013-02-23 14:44:00,
2013-02-23 09:49:00,38.5,38.0,29.97,SSW,202,0.0,0.0,98,0.09,CLR,,0.46,WeatherDisplay:10.37,2013-02-23 14:49:00,
2013-02-23 09:54:00,38.5,38.0,29.97,SSW,202,0.0,0.0,98,0.09,CLR,,0.46,WeatherDisplay:10.37,2013-02-23 14:54:00,
2013-02-23 09:59:00,38.7,38.1,29.97,SSW,202,0.0,0.0,98,0.09,CLR,,0.46,WeatherDisplay:10.37,2013-02-23 14:59:00,
2013-02-23 10:04:00,38.7,38.1,29.97,SSW,202,0.0,0.0,98,0.09,CLR,,0.46,WeatherDisplay:10.37,2013-02-23 15:04:00,
2013-02-23 10:09:00,38.7,38.1,29.97,SSW,202,0.0,0.0,98,0.04,CLR,,0.46,WeatherDisplay:10.37,2013-02-23 15:09:00,
2013-02-23 10:14:00,38.8,38.3,29.97,SSW,202,0.0,0.0,98,0.04,CLR,,0.46,WeatherDisplay:10.37,2013-02-23 15:14:00,
2013-02-23 10:19:00,38.8,38.3,29.97,SSW,202,0.0,0.0,98,0.04,CLR,,0.46,WeatherDisplay:10.37,2013-02-23 15:19:00,
2013-02-23 10:25:00,39.0,38.5,29.97,WNW,292,0.0,0.0,98,0.04,CLR,,0.46,WeatherDisplay:10.37,2013-02-23 15:25:00,
2013-02-23 10:30:00,38.8,38.3,29.94,WNW,292,0.0,0.0,98,0.04,CLR,,0.46,WeatherDisplay:10.37,2013-02-23 15:30:00,
2013-02-23 10:35:00,39.0,38.5,29.94,WNW,292,0.0,0.0,98,0.00,CLR,,0.46,WeatherDisplay:10.37,2013-02-23 15:35:00,
2013-02-23 10:40:00,39.2,38.7,29.94,WNW,292,0.0,0.0,98,0.00,CLR,,0.46,WeatherDisplay:10.37,2013-02-23 15:40:00,
2013-02-23 10:45:00,39.2,38.7,29.94,WNW,292,0.0,0.0,98,0.00,CLR,,0.46,WeatherDisplay:10.37,2013-02-23 15:45:00,
2013-02-23 10:50:00,39.2,38.7,29.94,WNW,292,0.0,0.0,98,0.00,CLR,,0.46,WeatherDisplay:10.37,2013-02-23 15:50:00,
2013-02-23 10:55:00,39.2,38.7,29.94,WNW,292,0.0,0.0,98,0.00,CLR,,0.46,WeatherDisplay:10.37,2013-02-23 15:55:00,
2013-02-23 11:00:00,39.4,38.9,29.94,WSW,248,0.0,0.0,98,0.00,CLR,,0.46,WeatherDisplay:10.37,2013-02-23 16:00:00,
2013-02-23 11:05:00,39.4,38.9,29.94,WSW,248,0.0,0.0,98,0.00,CLR,,0.46,WeatherDisplay:10.37,2013-02-23 16:05:00,
2013-02-23 11:10:00,39.7,39.2,29.94,WSW,248,0.0,0.0,98,0.00,CLR,,0.46,WeatherDisplay:10.37,2013-02-23 16:10:00,
2013-02-23 11:15:00,39.7,39.2,29.94,WSW,248,0.0,0.0,98,0.04,RA,,0.50,WeatherDisplay:10.37,2013-02-23 16:15:00,
2013-02-23 11:20:00,39.9,39.4,29.94,NNW,338,0.0,0.0,98,0.04,RA,,0.50,WeatherDisplay:10.37,2013-02-23 16:20:00,
2013-02-23 11:25:00,39.9,39.4,29.94,NNW,338,0.0,0.0,98,0.04,,,0.50,WeatherDisplay:10.37,2013-02-23 16:25:00,
2013-02-23 11:30:00,39.9,39.4,29.91,NW,315,0.0,0.0,98,0.04,CLR,,0.50,WeatherDisplay:10.37,2013-02-23 16:30:00,
2013-02-23 11:35:00,40.1,39.6,29.91,NW,315,0.0,0.0,98,0.09,RA,,0.55,WeatherDisplay:10.37,2013-02-23 16:35:00,
2013-02-23 11:40:00,40.5,39.9,29.91,NW,315,0.0,0.0,98,0.09,RA,,0.55,WeatherDisplay:10.37,2013-02-23 16:40:00,
2013-02-23 11:45:00,40.5,39.9,29.94,NW,315,0.0,0.0,98,0.09,,,0.55,WeatherDisplay:10.37,2013-02-23 16:45:00,
2013-02-23 11:50:00,40.6,40.1,29.94,NW,315,0.0,0.0,98,0.09,CLR,,0.55,WeatherDisplay:10.37,2013-02-23 16:50:00,
2013-02-23 11:55:00,40.8,40.3,29.94,NW,315,0.0,0.0,98,0.09,CLR,,0.55,WeatherDisplay:10.37,2013-02-23 16:55:00,
2013-02-23 12:00:00,40.8,40.3,29.91,NW,315,0.0,0.0,98,0.09,CLR,,0.55,WeatherDisplay:10.37,2013-02-23 17:00:00,
2013-02-23 12:05:00,41.0,40.5,29.91,NW,315,0.0,0.0,98,0.09,CLR,,0.55,WeatherDisplay:10.37,2013-02-23 17:05:00,
2013-02-23 12:10:00,41.0,40.5,29.91,NW,315,0.0,0.0,98,0.09,CLR,,0.55,WeatherDisplay:10.37,2013-02-23 17:10:00,
2013-02-23 12:15:00,41.0,40.5,29.91,NW,315,0.0,0.0,98,0.05,CLR,,0.55,WeatherDisplay:10.37,2013-02-23 17:15:00,
2013-02-23 12:20:00,41.2,40.7,29.91,NW,315,0.0,0.0,98,0.05,CLR,,0.55,WeatherDisplay:10.37,2013-02-23 17:20:00,
2013-02-23 12:25:00,41.4,40.8,29.91,NW,315,0.0,0.0,98,0.05,CLR,,0.55,WeatherDisplay:10.37,2013-02-23 17:25:00,
2013-02-23 12:30:00,41.7,41.2,29.91,NW,315,0.0,0.0,98,0.05,CLR,,0.55,WeatherDisplay:10.37,2013-02-23 17:30:00,
2013-02-23 12:35:00,41.7,41.2,29.91,NW,315,0.0,0.0,98,0.00,CLR,,0.55,WeatherDisplay:10.37,2013-02-23 17:35:00,
2013-02-23 12:40:00,41.7,41.2,29.91,NW,315,0.0,0.0,98,0.00,CLR,,0.55,WeatherDisplay:10.37,2013-02-23 17:40:00,
2013-02-23 12:45:00,41.5,41.0,29.91,NNW,338,0.0,0.0,98,0.00,CLR,,0.55,WeatherDisplay:10.37,2013-02-23 17:45:00,
2013-02-23 12:50:00,41.7,41.2,29.91,NNW,338,0.0,0.0,98,0.00,CLR,,0.55,WeatherDisplay:10.37,2013-02-23 17:50:00,
2013-02-23 12:55:00,42.1,41.6,29.91,NNW,338,0.0,0.0,98,0.00,CLR,,0.55,WeatherDisplay:10.37,2013-02-23 17:55:00,
2013-02-23 13:00:00,42.1,41.6,29.91,NNW,338,0.0,0.0,98,0.00,CLR,,0.55,WeatherDisplay:10.37,2013-02-23 18:00:00,
2013-02-23 13:05:00,42.4,41.9,29.91,NNW,338,0.0,0.0,98,0.00,CLR,,0.55,WeatherDisplay:10.37,2013-02-23 18:05:00,
2013-02-23 13:10:00,42.4,41.9,29.91,NNW,338,0.0,0.0,98,0.00,CLR,,0.55,WeatherDisplay:10.37,2013-02-23 18:10:00,
2013-02-23 13:15:00,42.4,41.9,29.91,NNW,338,0.0,0.0,98,0.00,CLR,,0.55,WeatherDisplay:10.37,2013-02-23 18:15:00,
2013-02-23 13:20:00,42.4,41.9,29.91,NW,315,0.0,0.0,98,0.00,CLR,,0.55,WeatherDisplay:10.37,2013-02-23 18:20:00,
2013-02-23 13:25:00,42.3,41.7,29.91,North,0,0.0,0.0,98,0.00,CLR,,0.55,WeatherDisplay:10.37,2013-02-23 18:25:00,
2013-02-23 13:30:00,42.3,41.7,29.91,North,0,0.0,0.0,98,0.00,CLR,,0.55,WeatherDisplay:10.37,2013-02-23 18:30:00,
2013-02-23 13:35:00,42.3,41.7,29.91,North,0,0.0,0.0,98,0.00,CLR,,0.55,WeatherDisplay:10.37,2013-02-23 18:35:00,
2013-02-23 13:40:00,42.3,41.7,29.91,North,0,0.0,0.0,98,0.00,CLR,,0.55,WeatherDisplay:10.37,2013-02-23 18:40:00,
2013-02-23 13:45:00,42.4,41.9,29.91,North,0,0.0,0.0,98,0.00,CLR,,0.55,WeatherDisplay:10.37,2013-02-23 18:45:00,
2013-02-23 13:50:00,42.4,41.9,29.91,NE,45,0.0,0.0,98,0.00,CLR,,0.55,WeatherDisplay:10.37,2013-02-23 18:50:00,
2013-02-23 13:55:00,42.3,41.7,29.91,NE,45,0.0,0.0,98,0.00,CLR,,0.55,WeatherDisplay:10.37,2013-02-23 18:55:00,
2013-02-23 14:00:00,42.3,41.7,29.88,NE,45,0.0,0.0,98,0.00,CLR,,0.55,WeatherDisplay:10.37,2013-02-23 19:00:00,
2013-02-23 14:05:00,42.4,41.9,29.88,NE,45,0.0,0.0,98,0.00,CLR,,0.55,WeatherDisplay:10.37,2013-02-23 19:05:00,
2013-02-23 14:10:00,42.6,42.1,29.88,NE,45,0.0,0.0,98,0.00,CLR,,0.55,WeatherDisplay:10.37,2013-02-23 19:10:00,
2013-02-23 14:15:00,42.6,42.1,29.88,NE,45,0.0,0.0,98,0.00,CLR,,0.55,WeatherDisplay:10.37,2013-02-23 19:15:00,
2013-02-23 14:20:00,42.6,42.1,29.88,NE,45,0.0,0.0,98,0.00,CLR,,0.55,WeatherDisplay:10.37,2013-02-23 19:20:00,
2013-02-23 14:25:00,42.8,42.3,29.88,NE,45,0.0,0.0,98,0.00,CLR,,0.55,WeatherDisplay:10.37,2013-02-23 19:25:00,
2013-02-23 14:30:00,42.8,42.3,29.88,NE,45,0.0,0.0,98,0.00,CLR,,0.55,WeatherDisplay:10.37,2013-02-23 19:30:00,
2013-02-23 14:35:00,43.0,42.5,29.88,NE,45,0.0,0.0,98,0.00,CLR,,0.55,WeatherDisplay:10.37,2013-02-23 19:35:00,
2013-02-23 14:40:00,42.8,42.3,29.88,NE,45,0.0,0.0,98,0.00,CLR,,0.55,WeatherDisplay:10.37,2013-02-23 19:40:00,
2013-02-23 14:45:00,43.0,42.5,29.88,NE,45,0.0,0.0,98,0.00,CLR,,0.55,WeatherDisplay:10.37,2013-02-23 19:45:00,
2013-02-23 14:50:00,42.8,42.3,29.88,NE,45,0.0,0.0,98,0.00,CLR,,0.55,WeatherDisplay:10.37,2013-02-23 19:50:00,
2013-02-23 14:55:00,43.0,42.5,29.88,NE,45,0.0,0.0,98,0.00,CLR,,0.55,WeatherDisplay:10.37,2013-02-23 19:55:00,
2013-02-23 15:00:00,43.2,42.6,29.88,NE,45,0.0,0.0,98,0.00,CLR,,0.55,WeatherDisplay:10.37,2013-02-23 20:00:00,
2013-02-23 15:05:00,43.3,42.8,29.88,NE,45,0.0,0.0,98,0.00,CLR,,0.55,WeatherDisplay:10.37,2013-02-23 20:05:00,
2013-02-23 15:10:00,43.3,42.8,29.88,NE,45,0.0,0.0,98,0.00,CLR,,0.55,WeatherDisplay:10.37,2013-02-23 20:10:00,
2013-02-23 15:15:00,43.5,43.0,29.85,NE,45,0.0,0.0,98,0.00,CLR,,0.55,WeatherDisplay:10.37,2013-02-23 20:15:00,
2013-02-23 15:20:00,43.7,43.2,29.85,NE,45,0.0,0.0,98,0.00,CLR,,0.55,WeatherDisplay:10.37,2013-02-23 20:20:00,
2013-02-23 15:25:00,43.9,43.4,29.85,NE,45,0.0,0.0,98,0.00,CLR,,0.55,WeatherDisplay:10.37,2013-02-23 20:25:00,
2013-02-23 15:30:00,43.9,43.4,29.85,NE,45,0.0,0.0,98,0.00,CLR,,0.55,WeatherDisplay:10.37,2013-02-23 20:30:00,
2013-02-23 15:35:00,44.1,43.5,29.85,NE,45,0.0,0.0,98,0.00,CLR,,0.55,WeatherDisplay:10.37,2013-02-23 20:35:00,
2013-02-23 15:40:00,44.2,43.7,29.85,NE,45,0.0,0.0,98,0.00,CLR,,0.55,WeatherDisplay:10.37,2013-02-23 20:40:00,
2013-02-23 15:45:00,44.2,43.7,29.85,NE,45,0.0,0.0,98,0.00,CLR,,0.55,WeatherDisplay:10.37,2013-02-23 20:45:00,
2013-02-23 15:50:00,44.1,43.5,29.85,NW,315,0.0,0.0,98,0.00,CLR,,0.55,WeatherDisplay:10.37,2013-02-23 20:50:00,
2013-02-23 15:55:00,43.7,43.2,29.85,NW,315,0.0,0.0,98,0.00,CLR,,0.55,WeatherDisplay:10.37,2013-02-23 20:55:00,
2013-02-23 16:00:00,43.7,43.2,29.85,NW,315,0.0,0.0,98,0.00,CLR,,0.55,WeatherDisplay:10.37,2013-02-23 21:00:00,
2013-02-23 16:05:00,43.7,43.2,29.85,NW,315,0.0,0.0,98,0.00,CLR,,0.55,WeatherDisplay:10.37,2013-02-23 21:05:00,
2013-02-23 16:10:00,43.7,43.2,29.85,NW,315,0.0,0.0,98,0.00,CLR,,0.55,WeatherDisplay:10.37,2013-02-23 21:10:00,
2013-02-23 16:15:00,43.7,43.2,29.85,North,0,0.0,0.0,98,0.00,CLR,,0.55,WeatherDisplay:10.37,2013-02-23 21:15:00,
2013-02-23 16:20:00,43.7,43.2,29.85,North,0,0.0,0.0,98,0.00,CLR,,0.55,WeatherDisplay:10.37,2013-02-23 21:20:00,
2013-02-23 16:25:00,43.9,43.4,29.85,North,0,0.0,0.0,98,0.00,CLR,,0.55,WeatherDisplay:10.37,2013-02-23 21:25:00,
2013-02-23 16:30:00,43.9,43.4,29.85,North,0,0.0,0.0,98,0.00,CLR,,0.55,WeatherDisplay:10.37,2013-02-23 21:30:00,
2013-02-23 16:35:00,43.9,43.4,29.85,North,0,0.0,0.0,98,0.00,CLR,,0.55,WeatherDisplay:10.37,2013-02-23 21:35:00,
2013-02-23 16:40:00,44.1,43.5,29.85,North,0,0.0,0.0,98,0.00,CLR,,0.55,WeatherDisplay:10.37,2013-02-23 21:40:00,
2013-02-23 16:45:00,44.1,43.5,29.85,North,0,0.0,0.0,98,0.00,CLR,,0.55,WeatherDisplay:10.37,2013-02-23 21:45:00,
2013-02-23 16:50:00,44.1,43.5,29.85,North,0,0.0,0.0,98,0.00,CLR,,0.55,WeatherDisplay:10.37,2013-02-23 21:50:00,
2013-02-23 16:55:00,44.2,43.7,29.85,North,0,0.0,0.0,98,0.00,CLR,,0.55,WeatherDisplay:10.37,2013-02-23 21:55:00,
2013-02-23 17:00:00,44.1,43.5,29.85,North,0,0.0,0.0,98,0.00,CLR,,0.55,WeatherDisplay:10.37,2013-02-23 22:00:00,
2013-02-23 17:05:00,44.1,43.5,29.85,North,0,0.0,0.0,98,0.00,CLR,,0.55,WeatherDisplay:10.37,2013-02-23 22:05:00,
2013-02-23 17:10:00,44.1,43.5,29.85,North,0,0.0,0.0,98,0.00,CLR,,0.55,WeatherDisplay:10.37,2013-02-23 22:10:00,
2013-02-23 17:15:00,44.1,43.5,29.85,North,0,0.0,0.0,98,0.00,CLR,,0.55,WeatherDisplay:10.37,2013-02-23 22:15:00,
2013-02-23 17:20:00,44.1,43.5,29.85,North,0,0.0,0.0,98,0.00,CLR,,0.55,WeatherDisplay:10.37,2013-02-23 22:20:00,
2013-02-23 17:25:00,44.2,43.7,29.85,North,0,0.0,0.0,98,0.00,CLR,,0.55,WeatherDisplay:10.37,2013-02-23 22:25:00,
2013-02-23 17:30:00,44.1,43.5,29.85,North,0,0.0,0.0,98,0.00,CLR,,0.55,WeatherDisplay:10.37,2013-02-23 22:30:00,
2013-02-23 17:35:00,44.1,43.5,29.85,North,0,0.0,0.0,98,0.00,CLR,,0.55,WeatherDisplay:10.37,2013-02-23 22:35:00,
2013-02-23 17:40:00,44.1,43.5,29.85,North,0,0.0,0.0,98,0.00,CLR,,0.55,WeatherDisplay:10.37,2013-02-23 22:40:00,
2013-02-23 17:45:00,44.2,43.7,29.83,North,0,0.0,0.0,98,0.00,CLR,,0.55,WeatherDisplay:10.37,2013-02-23 22:45:00,
2013-02-23 17:50:00,44.1,43.5,29.83,North,0,0.0,0.0,98,0.00,CLR,,0.55,WeatherDisplay:10.37,2013-02-23 22:50:00,
2013-02-23 17:55:00,44.1,43.5,29.83,North,0,0.0,0.0,98,0.00,CLR,,0.55,WeatherDisplay:10.37,2013-02-23 22:55:00,
2013-02-23 18:00:00,44.1,43.5,29.85,North,0,0.0,0.0,98,0.00,CLR,,0.55,WeatherDisplay:10.37,2013-02-23 23:00:00,
2013-02-23 18:05:00,44.1,43.5,29.85,North,0,0.0,0.0,98,0.00,CLR,,0.55,WeatherDisplay:10.37,2013-02-23 23:05:00,
2013-02-23 18:10:00,44.1,43.5,29.85,North,0,0.0,0.0,98,0.00,CLR,,0.55,WeatherDisplay:10.37,2013-02-23 23:10:00,
2013-02-23 18:15:00,43.9,43.4,29.83,North,0,0.0,0.0,98,0.00,CLR,,0.55,WeatherDisplay:10.37,2013-02-23 23:15:00,
2013-02-23 18:20:00,43.7,43.2,29.83,North,0,0.0,0.0,98,0.00,CLR,,0.55,WeatherDisplay:10.37,2013-02-23 23:20:00,
2013-02-23 18:25:00,43.7,43.2,29.83,North,0,0.0,0.0,98,0.00,CLR,,0.55,WeatherDisplay:10.37,2013-02-23 23:25:00,
2013-02-23 18:30:00,43.7,43.2,29.83,North,0,0.0,0.0,98,0.00,CLR,,0.55,WeatherDisplay:10.37,2013-02-23 23:30:00,
2013-02-23 18:35:00,43.7,43.2,29.83,North,0,0.0,0.0,98,0.00,CLR,,0.55,WeatherDisplay:10.37,2013-02-23 23:35:00,
2013-02-23 18:40:00,43.7,43.2,29.83,North,0,0.0,0.0,98,0.00,CLR,,0.55,WeatherDisplay:10.37,2013-02-23 23:40:00,
2013-02-23 18:45:00,43.7,43.2,29.83,North,0,0.0,0.0,98,0.00,CLR,,0.55,WeatherDisplay:10.37,2013-02-23 23:45:00,
2013-02-23 18:50:00,43.9,43.4,29.83,North,0,0.0,0.0,98,0.00,CLR,,0.55,WeatherDisplay:10.37,2013-02-23 23:50:00,
2013-02-23 18:55:00,43.7,43.2,29.83,North,0,0.0,0.0,98,0.00,CLR,,0.55,WeatherDisplay:10.37,2013-02-23 23:55:00,
2013-02-23 19:00:00,43.7,43.2,29.83,North,0,0.0,0.0,98,0.00,CLR,,0.55,WeatherDisplay:10.37,2013-02-24 00:00:00,
2013-02-23 19:05:00,43.7,43.2,29.83,North,0,0.0,0.0,98,0.00,CLR,,0.55,WeatherDisplay:10.37,2013-02-24 00:05:00,
2013-02-23 19:10:00,43.7,43.2,29.83,North,0,0.0,0.0,98,0.00,CLR,,0.55,WeatherDisplay:10.37,2013-02-24 00:10:00,
2013-02-23 19:15:00,43.7,43.2,29.83,North,0,0.0,0.0,98,0.00,CLR,,0.55,WeatherDisplay:10.37,2013-02-24 00:15:00,
2013-02-23 19:20:00,43.7,43.2,29.83,North,0,0.0,0.0,98,0.00,CLR,,0.55,WeatherDisplay:10.37,2013-02-24 00:20:00,
2013-02-23 19:25:00,43.7,43.2,29.83,North,0,0.0,0.0,98,0.00,CLR,,0.55,WeatherDisplay:10.37,2013-02-24 00:25:00,
2013-02-23 19:30:00,43.7,43.2,29.83,North,0,0.0,0.0,98,0.00,CLR,,0.55,WeatherDisplay:10.37,2013-02-24 00:30:00,
2013-02-23 19:35:00,43.7,43.2,29.83,North,0,0.0,0.0,98,0.00,CLR,,0.55,WeatherDisplay:10.37,2013-02-24 00:35:00,
2013-02-23 19:40:00,43.7,43.2,29.83,North,0,0.0,0.0,98,0.00,CLR,,0.55,WeatherDisplay:10.37,2013-02-24 00:40:00,
2013-02-23 19:45:00,43.7,43.2,29.83,North,0,0.0,0.0,98,0.00,CLR,,0.55,WeatherDisplay:10.37,2013-02-24 00:45:00,
2013-02-23 19:50:00,43.7,43.2,29.83,North,0,0.0,0.0,98,0.00,CLR,,0.55,WeatherDisplay:10.37,2013-02-24 00:50:00,
2013-02-23 19:55:00,43.7,43.2,29.83,North,0,0.0,0.0,98,0.00,CLR,,0.55,WeatherDisplay:10.37,2013-02-24 00:55:00,
2013-02-23 20:00:00,43.7,43.2,29.83,North,0,0.0,0.0,98,0.00,CLR,,0.55,WeatherDisplay:10.37,2013-02-24 01:00:00,
2013-02-23 20:05:00,43.7,43.2,29.83,North,0,0.0,0.0,98,0.00,CLR,,0.55,WeatherDisplay:10.37,2013-02-24 01:05:00,
2013-02-23 20:10:00,43.7,43.2,29.83,North,0,0.0,0.0,98,0.00,CLR,,0.55,WeatherDisplay:10.37,2013-02-24 01:10:00,
2013-02-23 20:15:00,43.7,43.2,29.83,North,0,0.0,0.0,98,0.00,CLR,,0.55,WeatherDisplay:10.37,2013-02-24 01:15:00,
2013-02-23 20:20:00,43.7,43.2,29.83,North,0,0.0,0.0,98,0.00,CLR,,0.55,WeatherDisplay:10.37,2013-02-24 01:20:00,
2013-02-23 20:25:00,43.7,43.2,29.83,North,0,0.0,0.0,98,0.00,CLR,,0.55,WeatherDisplay:10.37,2013-02-24 01:25:00,
2013-02-23 20:30:00,43.7,43.2,29.85,North,0,0.0,0.0,98,0.00,CLR,,0.55,WeatherDisplay:10.37,2013-02-24 01:30:00,
2013-02-23 20:35:00,43.7,43.2,29.85,North,0,0.0,0.0,98,0.00,CLR,,0.55,WeatherDisplay:10.37,2013-02-24 01:35:00,
2013-02-23 20:40:00,43.7,43.2,29.85,North,0,0.0,0.0,98,0.00,CLR,,0.55,WeatherDisplay:10.37,2013-02-24 01:40:00,
2013-02-23 20:45:00,43.5,43.0,29.85,North,0,0.0,0.0,98,0.00,CLR,,0.55,WeatherDisplay:10.37,2013-02-24 01:45:00,
2013-02-23 20:50:00,43.5,43.0,29.85,North,0,0.0,0.0,98,0.00,CLR,,0.55,WeatherDisplay:10.37,2013-02-24 01:50:00,
2013-02-23 20:55:00,43.5,43.0,29.85,North,0,0.0,0.0,98,0.00,CLR,,0.55,WeatherDisplay:10.37,2013-02-24 01:55:00,
2013-02-23 21:00:00,43.3,42.8,29.83,North,0,0.0,0.0,98,0.00,CLR,,0.55,WeatherDisplay:10.37,2013-02-24 02:00:00,
2013-02-23 21:05:00,43.3,42.8,29.83,North,0,0.0,0.0,98,0.00,CLR,,0.55,WeatherDisplay:10.37,2013-02-24 02:05:00,
2013-02-23 21:10:00,43.2,42.6,29.83,SSE,158,0.0,0.0,98,0.00,CLR,,0.55,WeatherDisplay:10.37,2013-02-24 02:10:00,
2013-02-23 21:15:00,43.3,42.8,29.83,West,270,0.0,0.0,98,0.00,CLR,,0.55,WeatherDisplay:10.37,2013-02-24 02:15:00,
2013-02-23 21:20:00,43.2,42.6,29.83,SSE,158,0.0,0.0,98,0.00,CLR,,0.55,WeatherDisplay:10.37,2013-02-24 02:20:00,
2013-02-23 21:25:00,43.2,42.6,29.83,West,270,0.0,0.0,98,0.00,CLR,,0.55,WeatherDisplay:10.37,2013-02-24 02:25:00,
2013-02-23 21:30:00,43.2,42.6,29.85,West,270,0.0,0.0,98,0.00,CLR,,0.55,WeatherDisplay:10.37,2013-02-24 02:30:00,
2013-02-23 21:35:00,43.0,42.5,29.85,West,270,0.0,0.0,98,0.00,CLR,,0.55,WeatherDisplay:10.37,2013-02-24 02:35:00,
2013-02-23 21:40:00,43.0,42.5,29.85,West,270,0.0,0.0,98,0.00,CLR,,0.55,WeatherDisplay:10.37,2013-02-24 02:40:00,
2013-02-23 21:45:00,43.0,42.5,29.85,West,270,0.0,0.0,98,0.00,CLR,,0.55,WeatherDisplay:10.37,2013-02-24 02:45:00,
2013-02-23 21:50:00,43.0,42.5,29.85,West,270,0.0,0.0,98,0.00,CLR,,0.55,WeatherDisplay:10.37,2013-02-24 02:50:00,
2013-02-23 21:55:00,43.2,42.6,29.85,West,270,0.0,0.0,98,0.00,CLR,,0.55,WeatherDisplay:10.37,2013-02-24 02:55:00,
2013-02-23 22:00:00,43.0,42.5,29.85,SE,135,0.0,0.0,98,0.00,CLR,,0.55,WeatherDisplay:10.37,2013-02-24 03:00:00,
2013-02-23 22:05:00,43.2,42.6,29.85,SE,135,0.0,0.0,98,0.00,CLR,,0.55,WeatherDisplay:10.37,2013-02-24 03:05:00,
2013-02-23 22:10:00,43.2,42.6,29.85,WSW,248,0.0,0.0,98,0.00,CLR,,0.55,WeatherDisplay:10.37,2013-02-24 03:10:00,
2013-02-23 22:15:00,43.3,42.8,29.85,West,270,0.0,0.0,98,0.00,CLR,,0.55,WeatherDisplay:10.37,2013-02-24 03:15:00,
2013-02-23 22:20:00,43.3,42.8,29.85,ESE,112,0.0,0.0,98,0.00,CLR,,0.55,WeatherDisplay:10.37,2013-02-24 03:20:00,
2013-02-23 22:25:00,43.3,42.8,29.85,ESE,112,0.0,0.0,98,0.00,CLR,,0.55,WeatherDisplay:10.37,2013-02-24 03:25:00,
2013-02-23 22:30:00,43.5,43.0,29.83,ESE,112,0.0,0.0,98,0.00,CLR,,0.55,WeatherDisplay:10.37,2013-02-24 03:30:00,
2013-02-23 22:35:00,43.5,43.0,29.83,ESE,112,0.0,0.0,98,0.00,CLR,,0.55,WeatherDisplay:10.37,2013-02-24 03:35:00,
2013-02-23 22:40:00,43.5,43.0,29.83,SSE,158,0.0,0.0,98,0.00,CLR,,0.55,WeatherDisplay:10.37,2013-02-24 03:40:00,
2013-02-23 22:45:00,43.5,43.0,29.80,SSE,158,0.0,0.0,98,0.00,CLR,,0.55,WeatherDisplay:10.37,2013-02-24 03:45:00,
2013-02-23 22:50:00,43.5,43.0,29.80,South,180,0.0,0.0,98,0.00,CLR,,0.55,WeatherDisplay:10.37,2013-02-24 03:50:00,
2013-02-23 22:55:00,43.5,43.0,29.80,South,180,0.0,0.0,98,0.00,CLR,,0.55,WeatherDisplay:10.37,2013-02-24 03:55:00,
2013-02-23 23:00:00,43.3,42.8,29.80,South,180,0.0,0.0,98,0.00,CLR,,0.55,WeatherDisplay:10.37,2013-02-24 04:00:00,
2013-02-23 23:05:00,43.3,42.8,29.80,South,180,0.0,0.0,98,0.00,CLR,,0.55,WeatherDisplay:10.37,2013-02-24 04:05:00,
2013-02-23 23:10:00,43.3,42.8,29.80,WSW,248,0.0,0.0,98,0.00,CLR,,0.55,WeatherDisplay:10.37,2013-02-24 04:10:00,
2013-02-23 23:15:00,43.3,42.8,29.80,West,270,0.0,0.0,98,0.00,CLR,,0.55,WeatherDisplay:10.37,2013-02-24 04:15:00,
2013-02-23 23:20:00,43.3,42.8,29.80,West,270,0.0,0.0,98,0.00,CLR,,0.55,WeatherDisplay:10.37,2013-02-24 04:20:00,
2013-02-23 23:25:00,43.3,42.8,29.80,West,270,0.0,0.0,98,0.00,CLR,,0.55,WeatherDisplay:10.37,2013-02-24 04:25:00,
2013-02-23 23:30:00,43.3,42.8,29.83,West,270,0.0,0.0,98,0.00,CLR,,0.55,WeatherDisplay:10.37,2013-02-24 04:30:00,
2013-02-23 23:35:00,43.3,42.8,29.83,West,270,0.0,0.0,98,0.00,CLR,,0.55,WeatherDisplay:10.37,2013-02-24 04:35:00,
2013-02-23 23:40:00,43.5,43.0,29.83,West,270,0.0,0.0,98,0.00,CLR,,0.55,WeatherDisplay:10.37,2013-02-24 04:40:00,
2013-02-23 23:45:00,43.5,43.0,29.83,West,270,0.0,0.0,98,0.00,CLR,,0.55,WeatherDisplay:10.37,2013-02-24 04:45:00,
2013-02-23 23:50:00,43.5,43.0,29.83,West,270,0.0,0.0,98,0.00,CLR,,0.55,WeatherDisplay:10.37,2013-02-24 04:50:00,
2013-02-23 23:55:00,43.5,43.0,29.83,West,270,0.0,0.0,98,0.00,CLR,,0.55,WeatherDisplay:10.37,2013-02-24 04:55:00,